Wind_Speed
42 42 42 41 41 41 42 42 43 41 40 38 38 40 41 41 40 40 39 39 39 40 40 41 41 41 41 42 43 44 44 45 45 46 47 48 48 48 49 48 48 49 50 50
43 42 43 43 41 41 41 40 41 41 40 38 39 40 40 39 39 39 39 39 40 40 41 41 42 42 42 42 43 43 44 45 46 47 48 49 49 49 48 49 49 49 49 50
43 42 44 44 39 40 40 39 40 41 39 39 40 40 39 39 39 39 39 39 40 41 41 42 42 42 42 43 43 44 44 46 47 48 48 49 49 49 49 49 49 50 50 50
43 43 46 42 40 39 40 39 40 41 40 39 39 39 39 39 40 39 39 40 40 41 41 42 42 43 43 43 43 44 45 47 47 48 49 49 48 47 47 47 47 47 49 49
42 44 44 41 39 38 39 40 39 40 40 40 40 40 38 38 39 40 40 41 41 41 42 42 42 43 44 44 44 45 46 47 47 47 47 47 46 46 45 45 45 45 46 47
41 42 43 41 39 39 41 41 39 39 40 40 39 39 38 38 39 40 41 42 42 42 42 42 42 43 43 44 45 45 45 45 45 45 45 44 44 44 44 44 43 43 44 44
41 43 43 40 40 40 40 40 38 38 38 38 38 38 38 37 38 39 40 41 41 41 41 41 42 42 43 43 43 43 44 44 44 44 43 43 43 44 44 44 43 42 42 42
41 43 42 40 39 39 39 39 38 38 37 38 37 37 37 38 38 39 40 40 40 40 41 41 42 42 43 43 43 42 43 43 43 43 43 43 42 42 42 42 42 41 40 40
41 41 40 40 40 40 40 39 38 38 38 38 38 38 38 38 39 39 39 39 40 40 41 41 42 43 43 42 42 42 42 42 41 41 41 42 42 41 41 41 40 40 40 39
39 38 39 40 40 39 39 38 38 38 38 38 39 39 39 39 39 39 39 40 40 41 41 42 42 43 42 42 42 41 41 41 41 41 40 40 39 39 39 38 38 38 37 37
38 37 38 38 38 39 39 39 39 39 39 39 39 39 39 39 39 39 39 40 40 41 42 42 42 42 41 41 41 41 41 40 40 39 39 38 38 37 36 35 35 34 33 32
37 36 37 37 38 38 39 39 40 40 40 40 40 39 39 39 38 39 39 40 41 41 41 40 41 41 41 41 40 40 40 39 38 38 37 37 36 35 35 34 33 32 32 31
38 38 39 38 38 39 39 40 40 40 40 40 39 39 39 39 39 39 39 40 41 40 40 40 40 40 39 39 38 38 37 36 36 35 35 34 33 32 32 31 30 30 30 29
39 40 40 39 39 39 40 40 40 39 39 38 39 39 39 39 40 40 40 40 40 40 40 40 40 38 37 37 36 35 34 33 33 32 31 31 30 29 29 28 28 28 28 28
37 38 38 38 38 38 38 38 38 38 38 38 39 39 39 39 39 39 39 39 39 39 39 38 37 36 35 35 33 32 31 30 30 29 29 28 27 27 27 26 26 26 26 25
33 34 35 35 35 35 35 36 36 36 37 37 37 38 38 38 38 38 38 38 38 37 37 36 34 33 33 32 30 29 28 27 27 27 26 26 26 25 24 24 23 23 22 22
30 30 31 32 32 33 33 34 35 35 35 35 35 35 36 36 36 36 36 36 35 34 33 32 31 30 30 29 27 26 26 26 26 25 25 25 24 23 21 21 21 21 20 20
27 28 28 29 30 31 32 32 33 33 33 33 33 33 33 33 33 33 32 32 31 30 30 29 28 28 27 26 25 24 24 24 24 24 24 22 21 20 20 19 19 19 19 18
26 26 27 27 27 28 29 29 30 30 31 32 32 32 32 32 31 30 30 29 28 28 28 27 27 26 25 24 23 23 22 22 22 22 21 19 18 18 18 18 18 18 18 17
24 25 25 25 25 26 27 28 29 29 30 30 31 31 30 29 29 28 28 27 27 26 25 25 25 24 24 23 22 22 21 21 19 18 17 17 16 16 16 17 17 17 16 16
23 23 24 24 25 26 26 27 28 28 28 29 29 29 28 27 27 26 25 25 25 24 24 24 23 23 22 21 20 20 20 19 18 17 16 16 16 16 16 16 16 16 16 15
22 22 23 24 25 25 26 26 26 27 27 27 27 26 25 25 24 24 24 24 24 24 23 22 22 21 20 19 19 19 18 17 17 17 16 16 16 16 16 16 15 15 15 15
21 22 23 23 24 24 24 24 25 24 24 24 24 24 24 24 23 23 23 23 23 23 22 21 20 20 19 19 18 18 18 17 17 17 16 16 17 16 16 15 15 15 15 15
22 22 22 23 23 23 22 22 22 22 22 22 22 23 22 22 22 22 22 22 21 21 20 20 19 19 18 18 18 17 17 17 17 17 16 17 16 16 16 15 15 15 15 15
22 22 22 21 21 21 21 21 20 20 21 21 21 21 21 21 20 20 20 20 20 19 19 19 18 17 17 17 17 17 16 16 16 16 16 16 16 15 15 14 14 14 14 15
22 21 21 21 20 20 20 20 20 20 21 21 20 20 19 19 19 19 19 19 18 18 18 17 16 17 17 17 16 16 16 16 16 16 16 15 15 15 14 14 14 14 14 14
20 20 20 20 20 20 20 20 20 20 20 19 18 18 18 18 18 18 17 17 17 16 16 16 16 16 16 16 17 17 17 16 16 15 15 14 14 13 13 13 13 12 12 12
Wind_Direction
261 263 264 265 266 267 269 273 275 278 278 280 279 278 278 277 277 278 278 277 277 278 279 280 279 279 279 279 280 279 278 278 278 278 278 278 278 278 278 278 277 276 275 274
260 263 264 265 266 268 270 272 276 278 278 280 279 278 278 277 277 277 278 278 278 279 280 280 280 279 280 280 281 280 279 279 280 280 279 279 279 280 279 277 277 277 276 275
262 263 264 265 268 270 271 273 275 277 279 279 278 278 278 277 277 278 278 279 279 280 281 281 280 280 280 280 280 280 281 281 281 281 280 280 280 280 280 278 276 276 276 276
264 264 264 268 268 270 272 273 275 276 277 278 278 278 278 277 278 278 278 279 280 281 282 281 282 282 281 281 281 281 283 283 284 282 281 281 281 280 279 278 276 275 275 275
264 266 267 267 269 271 272 272 274 276 276 277 279 279 279 278 279 279 280 281 282 283 284 283 284 284 283 282 282 283 284 285 284 284 284 282 281 279 279 278 277 276 276 276
264 267 268 270 270 271 273 274 275 275 275 277 278 279 279 279 279 280 281 281 283 284 285 285 286 286 285 284 284 284 284 284 285 285 285 284 282 281 280 279 277 276 276 276
263 266 268 271 272 272 273 276 276 276 276 277 277 278 279 279 280 281 281 282 284 284 285 287 287 287 286 286 286 285 285 285 285 286 285 284 283 283 283 281 278 277 276 276
262 265 268 270 271 271 273 274 275 276 276 276 276 278 280 281 281 282 282 283 285 285 286 287 288 288 288 287 287 286 286 287 286 286 285 284 283 282 282 281 279 278 277 277
261 263 266 268 269 271 273 274 274 275 275 276 277 279 280 281 282 282 283 285 285 286 287 288 288 289 289 289 288 288 287 287 287 287 287 284 282 282 281 280 280 279 278 278
261 263 265 267 269 271 272 273 273 275 276 277 278 280 280 282 283 283 284 285 286 287 288 288 288 290 290 290 290 289 289 287 287 286 286 284 283 283 282 281 279 279 278 278
261 263 264 265 268 269 270 272 274 275 276 278 279 280 281 282 283 284 284 285 286 288 289 289 289 290 291 291 291 291 290 289 287 285 283 283 283 283 283 282 281 279 277 277
261 261 263 265 267 268 269 271 273 275 276 278 279 279 280 281 283 284 285 285 287 288 289 290 290 291 292 292 292 291 291 290 288 286 283 282 282 281 281 281 279 279 278 277
261 260 262 265 266 268 269 271 273 274 275 277 278 279 280 282 284 285 285 286 287 288 289 290 291 292 292 293 292 292 291 290 289 287 285 282 281 279 278 278 277 276 275 275
261 262 263 264 266 268 269 271 273 274 275 276 278 279 280 282 284 285 286 287 288 288 288 289 291 291 292 293 292 292 290 289 289 287 285 284 283 281 279 276 272 273 273 273
261 263 265 266 267 268 269 271 273 274 276 278 279 279 280 282 283 285 286 288 288 288 289 289 290 290 291 293 292 291 290 289 289 287 285 284 283 281 279 277 274 272 272 271
261 263 265 266 267 268 269 271 273 274 276 278 279 280 281 282 283 285 287 288 288 290 290 289 289 289 291 292 292 291 290 289 289 287 285 284 283 280 278 276 275 273 270 269
262 263 266 267 267 268 270 271 273 275 277 278 279 281 282 283 284 286 287 287 288 289 289 289 289 289 291 292 291 290 289 289 289 288 287 285 284 281 278 276 274 272 270 268
265 266 268 269 270 271 272 273 274 276 277 279 281 282 284 284 284 286 287 288 288 288 289 289 289 290 290 291 291 290 289 289 289 288 288 286 283 280 278 275 273 271 268 266
269 269 269 270 271 273 274 275 277 279 281 282 283 284 284 284 284 285 286 286 286 287 288 289 289 289 290 290 290 289 289 289 289 290 288 286 283 280 279 278 274 270 267 265
270 269 268 269 272 274 276 277 278 281 283 284 286 286 284 283 282 283 285 285 285 286 287 288 289 289 289 289 289 288 287 287 286 287 287 285 281 279 279 278 275 270 267 265
269 269 269 271 273 275 277 278 280 282 284 285 285 285 284 282 282 283 283 283 284 286 287 288 289 289 288 288 288 287 285 283 282 283 284 282 279 279 280 278 273 268 264 263
269 270 272 274 276 278 280 282 283 284 285 284 284 283 283 282 283 283 284 284 284 286 287 288 288 288 288 288 288 286 283 282 282 281 281 279 279 280 278 275 270 265 263 262
273 273 275 276 277 280 283 284 284 285 284 284 283 283 282 282 283 283 283 283 284 285 285 285 285 285 287 287 286 285 284 282 280 281 281 281 282 280 277 274 270 266 262 260
278 277 277 277 278 281 282 283 284 283 283 284 285 284 283 283 282 282 282 282 282 283 283 283 283 283 283 284 285 285 284 281 280 282 281 281 282 280 277 273 269 264 260 259
278 279 279 278 279 281 282 283 283 283 283 284 285 284 283 284 283 282 282 281 280 280 281 281 280 280 282 283 284 284 283 282 282 282 283 282 281 280 277 272 268 264 261 259
277 277 278 278 280 281 282 282 282 284 285 285 285 284 284 283 283 283 282 281 281 280 280 278 278 281 281 281 282 283 284 283 282 283 283 282 281 279 274 270 266 263 263 262
278 278 277 279 280 280 280 281 282 284 285 284 284 282 282 283 284 283 282 280 280 280 279 277 278 280 282 283 283 283 283 282 282 281 280 280 280 277 271 266 265 264 264 260
Height
5604 5605 5605 5606 5607 5606 5605 5605 5604 5604 5604 5604 5602 5599 5597 5596 5594 5593 5592 5590 5588 5587 5585 5583 5581 5579 5577 5575 5572 5570 5568 5566 5565 5563 5560 5558 5555 5553 5551 5548 5546 5545 5543 5542
5592 5594 5593 5593 5596 5596 5595 5594 5593 5592 5593 5593 5590 5588 5586 5585 5583 5582 5581 5579 5578 5576 5574 5572 5570 5568 5566 5563 5561 5558 5556 5554 5552 5550 5547 5544 5542 5539 5536 5534 5532 5531 5529 5528
5581 5582 5580 5583 5587 5585 5584 5584 5583 5581 5583 5580 5579 5577 5575 5574 5572 5571 5570 5568 5567 5565 5563 5561 5559 5556 5554 5552 5549 5547 5544 5541 5539 5536 5533 5531 5528 5525 5522 5520 5518 5517 5515 5514
5569 5570 5569 5577 5576 5575 5573 5573 5572 5570 5570 5569 5567 5566 5564 5563 5561 5560 5559 5557 5555 5554 5552 5549 5547 5544 5542 5539 5536 5534 5531 5528 5525 5522 5519 5517 5514 5511 5508 5506 5504 5502 5501 5500
5557 5556 5557 5563 5564 5563 5561 5562 5561 5559 5558 5557 5556 5555 5554 5552 5551 5549 5548 5546 5544 5542 5540 5538 5535 5532 5529 5527 5524 5521 5518 5515 5512 5509 5506 5503 5500 5498 5495 5493 5490 5489 5488 5486
5546 5545 5546 5553 5553 5550 5550 5550 5550 5548 5547 5546 5545 5544 5544 5541 5540 5538 5536 5534 5532 5530 5528 5526 5523 5520 5517 5514 5512 5508 5505 5502 5498 5495 5493 5490 5487 5485 5482 5480 5478 5476 5475 5473
5534 5533 5535 5540 5540 5538 5539 5539 5538 5536 5536 5535 5534 5533 5532 5530 5529 5527 5525 5523 5521 5519 5516 5514 5511 5508 5505 5502 5499 5496 5492 5489 5486 5483 5480 5477 5475 5472 5470 5467 5465 5464 5463 5461
5523 5523 5527 5528 5527 5527 5527 5526 5526 5525 5524 5524 5523 5522 5521 5519 5517 5516 5514 5512 5509 5507 5505 5502 5499 5496 5493 5490 5487 5483 5480 5477 5474 5471 5468 5465 5463 5460 5457 5455 5453 5452 5451 5450
5513 5515 5516 5515 5515 5515 5515 5515 5514 5514 5514 5513 5512 5512 5510 5509 5507 5505 5502 5500 5498 5496 5493 5490 5487 5484 5481 5477 5474 5471 5468 5465 5462 5459 5455 5453 5450 5448 5446 5443 5442 5441 5440 5439
5501 5503 5504 5503 5503 5503 5503 5503 5503 5503 5503 5502 5501 5500 5499 5497 5495 5493 5491 5489 5486 5484 5481 5478 5475 5472 5468 5465 5462 5459 5456 5452 5450 5447 5444 5441 5438 5436 5434 5432 5431 5429 5429 5428
5490 5492 5491 5492 5492 5492 5492 5492 5492 5492 5491 5491 5490 5489 5487 5486 5484 5482 5479 5477 5474 5472 5469 5466 5463 5459 5456 5453 5450 5447 5443 5440 5437 5435 5432 5430 5428 5425 5423 5422 5419 5419 5418 5417
5479 5481 5480 5481 5481 5481 5481 5481 5481 5481 5480 5479 5478 5477 5476 5474 5472 5470 5468 5465 5462 5459 5456 5454 5451 5447 5444 5441 5438 5435 5432 5428 5426 5423 5421 5419 5417 5415 5413 5411 5410 5409 5408 5408
5467 5468 5468 5469 5470 5470 5470 5470 5470 5469 5469 5468 5467 5465 5464 5462 5460 5458 5455 5453 5450 5447 5445 5442 5439 5436 5433 5430 5427 5423 5420 5417 5415 5412 5410 5408 5406 5405 5404 5403 5401 5400 5400 5399
5454 5455 5457 5458 5459 5459 5458 5458 5458 5458 5457 5456 5455 5454 5452 5451 5449 5446 5444 5441 5438 5436 5433 5431 5428 5425 5422 5419 5416 5413 5410 5407 5404 5402 5400 5398 5396 5395 5394 5393 5393 5392 5391 5391
5443 5444 5445 5447 5447 5447 5447 5447 5446 5446 5446 5445 5444 5442 5441 5439 5437 5435 5432 5430 5427 5424 5422 5419 5417 5414 5411 5408 5405 5402 5400 5397 5394 5392 5390 5389 5387 5386 5385 5384 5384 5384 5383 5383
5433 5434 5434 5435 5436 5436 5436 5436 5435 5435 5434 5433 5432 5430 5429 5427 5425 5423 5421 5418 5416 5413 5411 5408 5406 5404 5401 5398 5396 5393 5390 5388 5385 5383 5382 5380 5379 5377 5377 5376 5376 5375 5375 5375
5424 5424 5424 5425 5425 5425 5425 5425 5424 5424 5423 5422 5420 5419 5417 5416 5414 5412 5410 5407 5405 5403 5400 5398 5396 5394 5391 5389 5387 5384 5382 5380 5377 5375 5374 5372 5371 5369 5369 5368 5368 5368 5368 5368
5415 5415 5415 5416 5415 5415 5415 5414 5414 5413 5412 5411 5409 5408 5406 5405 5403 5401 5399 5397 5395 5393 5391 5389 5387 5385 5383 5381 5379 5376 5374 5372 5370 5368 5366 5365 5363 5363 5362 5361 5361 5361 5361 5361
5406 5406 5406 5406 5406 5405 5405 5404 5403 5402 5401 5400 5399 5398 5396 5394 5393 5391 5389 5388 5386 5384 5383 5381 5379 5377 5375 5373 5371 5369 5367 5365 5363 5361 5359 5358 5357 5356 5356 5355 5355 5354 5354 5355
5397 5397 5397 5397 5397 5396 5395 5395 5394 5393 5391 5390 5389 5387 5386 5385 5383 5382 5381 5379 5377 5376 5374 5373 5371 5369 5367 5365 5363 5362 5360 5358 5357 5355 5354 5353 5352 5351 5350 5350 5349 5349 5349 5349
5389 5389 5389 5388 5388 5387 5386 5385 5384 5383 5382 5381 5379 5378 5377 5375 5374 5373 5372 5371 5369 5368 5366 5365 5363 5361 5360 5358 5356 5355 5353 5352 5351 5350 5349 5348 5347 5346 5345 5344 5343 5343 5343 5344
5381 5381 5380 5380 5379 5379 5378 5377 5375 5374 5373 5372 5370 5369 5368 5367 5366 5365 5364 5363 5362 5360 5359 5357 5356 5354 5353 5351 5350 5349 5347 5346 5345 5344 5343 5342 5341 5340 5339 5339 5338 5338 5338 5338
5373 5373 5372 5372 5371 5370 5369 5368 5367 5366 5364 5363 5362 5361 5360 5359 5358 5357 5356 5355 5354 5353 5351 5350 5349 5348 5346 5345 5344 5343 5342 5340 5339 5339 5338 5337 5336 5335 5334 5333 5333 5333 5333 5333
5365 5365 5364 5364 5363 5362 5361 5360 5359 5358 5356 5355 5354 5353 5352 5351 5350 5349 5348 5347 5346 5345 5344 5343 5342 5341 5340 5339 5338 5337 5336 5335 5334 5333 5332 5331 5330 5329 5328 5328 5327 5327 5327 5328
5358 5357 5357 5356 5355 5354 5353 5352 5351 5350 5349 5348 5347 5346 5345 5344 5343 5342 5341 5340 5339 5338 5337 5336 5335 5335 5334 5333 5332 5331 5330 5329 5328 5327 5326 5325 5324 5323 5323 5322 5322 5322 5322 5322
5350 5350 5349 5348 5348 5347 5346 5345 5344 5343 5342 5341 5340 5339 5338 5337 5336 5335 5334 5333 5332 5331 5330 5330 5329 5328 5328 5327 5326 5325 5324 5323 5322 5321 5320 5319 5318 5318 5317 5317 5317 5317 5317 5317
5343 5343 5342 5341 5341 5340 5339 5338 5337 5336 5335 5334 5333 5332 5331 5330 5330 5329 5328 5327 5326 5325 5324 5324 5323 5322 5322 5321 5320 5319 5318 5317 5316 5315 5314 5314 5313 5312 5312 5312 5312 5312 5312 5312